Year,Month,Day,Hour,Minute,Value (Times are PST for temperature in C)
2017,09,15,00,00,10.50
2017,09,15,00,01,10.50
2017,09,15,00,02,10.50
2017,09,15,00,03,10.50
2017,09,15,00,04,10.50
2017,09,15,00,05,10.50
2017,09,15,00,06,10.40
2017,09,15,00,07,10.40
2017,09,15,00,08,10.40
2017,09,15,00,09,10.40
2017,09,15,00,10,10.40
2017,09,15,00,11,10.30
2017,09,15,00,12,10.30
2017,09,15,00,13,10.30
2017,09,15,00,14,10.30
2017,09,15,00,15,10.30
2017,09,15,00,16,10.20
2017,09,15,00,17,10.20
2017,09,15,00,18,10.20
2017,09,15,00,19,10.20
2017,09,15,00,20,10.20
2017,09,15,00,21,10.10
2017,09,15,00,22,10.10
2017,09,15,00,23,10.10
2017,09,15,00,24,10.00
2017,09,15,00,25,10.00
2017,09,15,00,26,10.00
2017,09,15,00,27,9.90
2017,09,15,00,28,9.90
2017,09,15,00,29,9.90
2017,09,15,00,30,9.90
2017,09,15,00,31,9.90
2017,09,15,00,32,9.90
2017,09,15,00,33,9.80
2017,09,15,00,34,9.80
2017,09,15,00,35,9.80
2017,09,15,00,36,9.80
2017,09,15,00,37,9.80
2017,09,15,00,38,9.80
2017,09,15,00,39,9.70
2017,09,15,00,40,9.70
2017,09,15,00,41,9.70
2017,09,15,00,42,9.70
2017,09,15,00,43,9.70
2017,09,15,00,44,9.70
2017,09,15,00,45,9.70
2017,09,15,00,46,9.70
2017,09,15,00,47,9.60
2017,09,15,00,48,9.60
2017,09,15,00,49,9.60
2017,09,15,00,50,9.50
2017,09,15,00,51,9.50
2017,09,15,00,52,9.50
2017,09,15,00,53,9.40
2017,09,15,00,54,9.40
2017,09,15,00,55,9.40
2017,09,15,00,56,9.30
2017,09,15,00,57,9.30
2017,09,15,00,58,9.30
2017,09,15,00,59,9.30
2017,09,15,01,00,9.20
2017,09,15,01,01,9.20
2017,09,15,01,02,9.20
2017,09,15,01,03,9.10
2017,09,15,01,04,9.10
2017,09,15,01,05,9.10
2017,09,15,01,06,9.10
2017,09,15,01,07,9.10
2017,09,15,01,08,9.00
2017,09,15,01,09,8.90
2017,09,15,01,10,8.90
2017,09,15,01,11,8.90
2017,09,15,01,12,9.00
2017,09,15,01,13,9.00
2017,09,15,01,14,9.00
2017,09,15,01,15,9.00
2017,09,15,01,16,9.00
2017,09,15,01,17,8.90
2017,09,15,01,18,8.90
2017,09,15,01,19,8.90
2017,09,15,01,20,8.90
2017,09,15,01,21,8.90
2017,09,15,01,22,8.90
2017,09,15,01,23,8.80
2017,09,15,01,24,8.80
2017,09,15,01,25,8.80
2017,09,15,01,26,8.80
2017,09,15,01,27,8.80
2017,09,15,01,28,8.80
2017,09,15,01,29,8.70
2017,09,15,01,30,8.70
2017,09,15,01,31,8.70
2017,09,15,01,32,8.70
2017,09,15,01,33,8.60
2017,09,15,01,34,8.60
2017,09,15,01,35,8.60
2017,09,15,01,36,8.60
2017,09,15,01,37,8.60
2017,09,15,01,38,8.60
2017,09,15,01,39,8.50
2017,09,15,01,40,8.50
2017,09,15,01,41,8.50
2017,09,15,01,42,8.50
2017,09,15,01,43,8.50
2017,09,15,01,44,8.40
2017,09,15,01,45,8.40
2017,09,15,01,46,8.40
2017,09,15,01,47,8.40
2017,09,15,01,48,8.30
2017,09,15,01,49,8.30
2017,09,15,01,50,8.30
2017,09,15,01,51,8.30
2017,09,15,01,52,8.30
2017,09,15,01,53,8.30
2017,09,15,01,54,8.30
2017,09,15,01,55,8.30
2017,09,15,01,56,8.30
2017,09,15,01,57,8.20
2017,09,15,01,58,8.20
2017,09,15,01,59,8.20
2017,09,15,02,00,8.20
2017,09,15,02,01,8.20
2017,09,15,02,02,8.10
2017,09,15,02,03,8.10
2017,09,15,02,04,8.10
2017,09,15,02,05,8.00
2017,09,15,02,06,8.00
2017,09,15,02,07,7.90
2017,09,15,02,08,7.90
2017,09,15,02,09,7.90
2017,09,15,02,10,7.80
2017,09,15,02,11,7.80
2017,09,15,02,12,7.80
2017,09,15,02,13,7.80
2017,09,15,02,14,7.70
2017,09,15,02,15,7.70
2017,09,15,02,16,7.70
2017,09,15,02,17,7.70
2017,09,15,02,18,7.70
2017,09,15,02,19,7.60
2017,09,15,02,20,7.60
2017,09,15,02,21,7.60
2017,09,15,02,22,7.60
2017,09,15,02,23,7.50
2017,09,15,02,24,7.50
2017,09,15,02,25,7.50
2017,09,15,02,26,7.50
2017,09,15,02,27,7.50
2017,09,15,02,28,7.50
2017,09,15,02,29,7.50
2017,09,15,02,30,7.50
2017,09,15,02,31,7.50
2017,09,15,02,32,7.50
2017,09,15,02,33,7.50
2017,09,15,02,34,7.60
2017,09,15,02,35,7.60
2017,09,15,02,36,7.60
2017,09,15,02,37,7.60
2017,09,15,02,38,7.60
2017,09,15,02,39,7.60
2017,09,15,02,40,7.60
2017,09,15,02,41,7.50
2017,09,15,02,42,7.50
2017,09,15,02,43,7.50
2017,09,15,02,44,7.40
2017,09,15,02,45,7.40
2017,09,15,02,46,7.40
2017,09,15,02,47,7.40
2017,09,15,02,48,7.40
2017,09,15,02,49,7.40
2017,09,15,02,50,7.40
2017,09,15,02,51,7.40
2017,09,15,02,52,7.40
2017,09,15,02,53,7.40
2017,09,15,02,54,7.40
2017,09,15,02,55,7.40
2017,09,15,02,56,7.40
2017,09,15,02,57,7.40
2017,09,15,02,58,7.40
2017,09,15,02,59,7.40
2017,09,15,03,00,7.40
2017,09,15,03,01,7.30
2017,09,15,03,02,7.30
2017,09,15,03,03,7.30
2017,09,15,03,04,7.30
2017,09,15,03,05,7.30
2017,09,15,03,06,7.30
2017,09,15,03,07,7.30
2017,09,15,03,08,7.30
2017,09,15,03,09,7.30
2017,09,15,03,10,7.30
2017,09,15,03,11,7.30
2017,09,15,03,12,7.30
2017,09,15,03,13,7.30
2017,09,15,03,14,7.20
2017,09,15,03,15,7.20
2017,09,15,03,16,7.20
2017,09,15,03,17,7.20
2017,09,15,03,18,7.10
2017,09,15,03,19,7.10
2017,09,15,03,20,7.20
2017,09,15,03,21,7.20
2017,09,15,03,22,7.20
2017,09,15,03,23,7.20
2017,09,15,03,24,7.20
2017,09,15,03,25,7.20
2017,09,15,03,26,7.10
2017,09,15,03,27,7.10
2017,09,15,03,28,7.10
2017,09,15,03,29,7.10
2017,09,15,03,30,7.10
2017,09,15,03,31,7.10
2017,09,15,03,32,7.00
2017,09,15,03,33,7.00
2017,09,15,03,34,7.00
2017,09,15,03,35,7.00
2017,09,15,03,36,6.90
2017,09,15,03,37,6.90
2017,09,15,03,38,6.90
2017,09,15,03,39,6.80
2017,09,15,03,40,6.80
2017,09,15,03,41,6.80
2017,09,15,03,42,6.80
2017,09,15,03,43,6.80
2017,09,15,03,44,6.70
2017,09,15,03,45,6.70
2017,09,15,03,46,6.70
2017,09,15,03,47,6.70
2017,09,15,03,48,6.70
2017,09,15,03,49,6.70
2017,09,15,03,50,6.70
2017,09,15,03,51,6.60
2017,09,15,03,52,6.70
2017,09,15,03,53,6.60
2017,09,15,03,54,6.60
2017,09,15,03,55,6.60
2017,09,15,03,56,6.60
2017,09,15,03,57,6.50
2017,09,15,03,58,6.50
2017,09,15,03,59,6.50
2017,09,15,04,00,6.50
2017,09,15,04,01,6.40
2017,09,15,04,02,6.40
2017,09,15,04,03,6.40
2017,09,15,04,04,6.40
2017,09,15,04,05,6.40
2017,09,15,04,06,6.40
2017,09,15,04,07,6.40
2017,09,15,04,08,6.40
2017,09,15,04,09,6.40
2017,09,15,04,10,6.40
2017,09,15,04,11,6.40
2017,09,15,04,12,6.40
2017,09,15,04,13,6.40
2017,09,15,04,14,6.40
2017,09,15,04,15,6.40
2017,09,15,04,16,6.40
2017,09,15,04,17,6.40
2017,09,15,04,18,6.30
2017,09,15,04,19,6.30
2017,09,15,04,20,6.30
2017,09,15,04,21,6.30
2017,09,15,04,22,6.30
2017,09,15,04,23,6.30
2017,09,15,04,24,6.30
2017,09,15,04,25,6.30
2017,09,15,04,26,6.30
2017,09,15,04,27,6.20
2017,09,15,04,28,6.20
2017,09,15,04,29,6.20
2017,09,15,04,30,6.20
2017,09,15,04,31,6.20
2017,09,15,04,32,6.20
2017,09,15,04,33,6.20
2017,09,15,04,34,6.20
2017,09,15,04,35,6.10
2017,09,15,04,36,6.10
2017,09,15,04,37,6.10
2017,09,15,04,38,6.10
2017,09,15,04,39,6.10
2017,09,15,04,40,6.10
2017,09,15,04,41,6.10
2017,09,15,04,42,6.00
2017,09,15,04,43,6.00
2017,09,15,04,44,6.00
2017,09,15,04,45,6.00
2017,09,15,04,46,6.00
2017,09,15,04,47,6.00
2017,09,15,04,48,6.00
2017,09,15,04,49,6.00
2017,09,15,04,50,6.00
2017,09,15,04,51,6.00
2017,09,15,04,52,6.00
2017,09,15,04,53,6.00
2017,09,15,04,54,6.00
2017,09,15,04,55,6.10
2017,09,15,04,56,6.10
2017,09,15,04,57,6.10
2017,09,15,04,58,6.10
2017,09,15,04,59,6.10
2017,09,15,05,00,6.00
2017,09,15,05,01,6.00
2017,09,15,05,02,6.00
2017,09,15,05,03,5.90
2017,09,15,05,04,5.90
2017,09,15,05,05,5.90
2017,09,15,05,06,5.90
2017,09,15,05,07,5.80
2017,09,15,05,08,5.80
2017,09,15,05,09,5.80
2017,09,15,05,10,5.80
2017,09,15,05,11,5.80
2017,09,15,05,12,5.80
2017,09,15,05,13,5.70
2017,09,15,05,14,5.70
2017,09,15,05,15,5.70
2017,09,15,05,16,5.70
2017,09,15,05,17,5.70
2017,09,15,05,18,5.70
2017,09,15,05,19,5.60
2017,09,15,05,20,5.60
2017,09,15,05,21,5.60
2017,09,15,05,22,5.60
2017,09,15,05,23,5.60
2017,09,15,05,24,5.60
2017,09,15,05,25,5.50
2017,09,15,05,26,5.50
2017,09,15,05,27,5.60
2017,09,15,05,28,5.60
2017,09,15,05,29,5.60
2017,09,15,05,30,5.60
2017,09,15,05,31,5.60
2017,09,15,05,32,5.50
2017,09,15,05,33,5.50
2017,09,15,05,34,5.50
2017,09,15,05,35,5.50
2017,09,15,05,36,5.50
2017,09,15,05,37,5.40
2017,09,15,05,38,5.40
2017,09,15,05,39,5.40
2017,09,15,05,40,5.40
2017,09,15,05,41,5.40
2017,09,15,05,42,5.40
2017,09,15,05,43,5.40
2017,09,15,05,44,5.30
2017,09,15,05,45,5.30
2017,09,15,05,46,5.40
2017,09,15,05,47,5.30
2017,09,15,05,48,5.30
2017,09,15,05,49,5.30
2017,09,15,05,50,5.30
2017,09,15,05,51,5.30
2017,09,15,05,52,5.30
2017,09,15,05,53,5.30
2017,09,15,05,54,5.40
2017,09,15,05,55,5.40
2017,09,15,05,56,5.30
2017,09,15,05,57,5.40
2017,09,15,05,58,5.40
2017,09,15,05,59,5.40
2017,09,15,06,00,5.30
2017,09,15,06,01,5.30
2017,09,15,06,02,5.30
2017,09,15,06,03,5.30
2017,09,15,06,04,5.30
2017,09,15,06,05,5.30
2017,09,15,06,06,5.30
2017,09,15,06,07,5.30
2017,09,15,06,08,5.30
2017,09,15,06,09,5.30
2017,09,15,06,10,5.30
2017,09,15,06,11,5.30
2017,09,15,06,12,5.30
2017,09,15,06,13,5.40
2017,09,15,06,14,5.30
2017,09,15,06,15,5.30
2017,09,15,06,16,5.30
2017,09,15,06,17,5.40
2017,09,15,06,18,5.40
2017,09,15,06,19,5.30
2017,09,15,06,20,5.30
2017,09,15,06,21,5.30
2017,09,15,06,22,5.30
2017,09,15,06,23,5.30
2017,09,15,06,24,5.30
2017,09,15,06,25,5.30
2017,09,15,06,26,5.30
2017,09,15,06,27,5.30
2017,09,15,06,28,5.30
2017,09,15,06,29,5.30
2017,09,15,06,30,5.20
2017,09,15,06,31,5.20
2017,09,15,06,32,5.10
2017,09,15,06,33,5.10
2017,09,15,06,34,5.10
2017,09,15,06,35,5.10
2017,09,15,06,36,5.00
2017,09,15,06,37,5.00
2017,09,15,06,38,5.00
2017,09,15,06,39,5.00
2017,09,15,06,40,5.00
2017,09,15,06,41,5.00
2017,09,15,06,42,5.00
2017,09,15,06,43,5.00
2017,09,15,06,44,5.00
2017,09,15,06,45,5.00
2017,09,15,06,46,5.10
2017,09,15,06,47,5.10
2017,09,15,06,48,5.10
2017,09,15,06,49,5.10
2017,09,15,06,50,5.10
2017,09,15,06,51,5.10
2017,09,15,06,52,5.10
2017,09,15,06,53,5.10
2017,09,15,06,54,5.10
2017,09,15,06,55,5.10
2017,09,15,06,56,5.10
2017,09,15,06,57,5.10
2017,09,15,06,58,5.00
2017,09,15,06,59,5.00
2017,09,15,07,00,5.00
2017,09,15,07,01,5.00
2017,09,15,07,02,5.00
2017,09,15,07,03,4.90
2017,09,15,07,04,4.90
2017,09,15,07,05,4.90
2017,09,15,07,06,4.90
2017,09,15,07,07,4.90
2017,09,15,07,08,4.90
2017,09,15,07,09,4.90
2017,09,15,07,10,4.90
2017,09,15,07,11,4.90
2017,09,15,07,12,4.90
2017,09,15,07,13,4.90
2017,09,15,07,14,4.90
2017,09,15,07,15,4.90
2017,09,15,07,16,4.90
2017,09,15,07,17,4.90
2017,09,15,07,18,4.90
2017,09,15,07,19,4.90
2017,09,15,07,20,4.90
2017,09,15,07,21,4.90
2017,09,15,07,22,4.90
2017,09,15,07,23,4.90
2017,09,15,07,24,4.90
2017,09,15,07,25,4.90
2017,09,15,07,26,4.90
2017,09,15,07,27,4.90
2017,09,15,07,28,4.90
2017,09,15,07,29,5.00
2017,09,15,07,30,5.00
2017,09,15,07,31,5.00
2017,09,15,07,32,5.00
2017,09,15,07,33,5.00
2017,09,15,07,34,4.90
2017,09,15,07,35,4.90
2017,09,15,07,36,4.90
2017,09,15,07,37,4.90
2017,09,15,07,38,4.90
2017,09,15,07,39,4.90
2017,09,15,07,40,4.90
2017,09,15,07,41,4.90
2017,09,15,07,42,4.90
2017,09,15,07,43,5.00
2017,09,15,07,44,5.00
2017,09,15,07,45,5.00
2017,09,15,07,46,5.00
2017,09,15,07,47,5.10
2017,09,15,07,48,5.10
2017,09,15,07,49,5.10
2017,09,15,07,50,5.10
2017,09,15,07,51,5.10
2017,09,15,07,52,5.10
2017,09,15,07,53,5.20
2017,09,15,07,54,5.20
2017,09,15,07,55,5.20
2017,09,15,07,56,5.20
2017,09,15,07,57,5.20
2017,09,15,07,58,5.20
2017,09,15,07,59,5.30
2017,09,15,08,00,5.30
2017,09,15,08,01,5.30
2017,09,15,08,02,5.30
2017,09,15,08,03,5.40
2017,09,15,08,04,5.40
2017,09,15,08,05,5.50
2017,09,15,08,06,5.50
2017,09,15,08,07,5.60
2017,09,15,08,08,5.60
2017,09,15,08,09,5.60
2017,09,15,08,10,5.70
2017,09,15,08,11,5.70
2017,09,15,08,12,5.80
2017,09,15,08,13,5.80
2017,09,15,08,14,5.80
2017,09,15,08,15,5.90
2017,09,15,08,16,5.90
2017,09,15,08,17,6.00
2017,09,15,08,18,6.10
2017,09,15,08,19,6.20
2017,09,15,08,20,6.30
2017,09,15,08,21,6.40
2017,09,15,08,22,6.50
2017,09,15,08,23,6.60
2017,09,15,08,24,6.70
2017,09,15,08,25,6.80
2017,09,15,08,26,6.80
2017,09,15,08,27,6.90
2017,09,15,08,28,7.00
2017,09,15,08,29,7.10
2017,09,15,08,30,7.20
2017,09,15,08,31,7.30
2017,09,15,08,32,7.30
2017,09,15,08,33,7.30
2017,09,15,08,34,7.30
2017,09,15,08,35,7.30
2017,09,15,08,36,7.30
2017,09,15,08,37,8.00
2017,09,15,08,38,8.20
2017,09,15,08,39,8.30
2017,09,15,08,40,8.40
2017,09,15,08,41,8.60
2017,09,15,08,42,8.70
2017,09,15,08,43,8.80
2017,09,15,08,44,9.00
2017,09,15,08,45,9.10
2017,09,15,08,46,9.30
2017,09,15,08,47,9.40
2017,09,15,08,48,9.50
2017,09,15,08,49,9.60
2017,09,15,08,50,9.70
2017,09,15,08,51,9.80
2017,09,15,08,52,9.90
2017,09,15,08,53,9.90
2017,09,15,08,54,10.00
2017,09,15,08,55,10.00
2017,09,15,08,56,10.10
2017,09,15,08,57,10.10
2017,09,15,08,58,10.10
2017,09,15,08,59,10.20
2017,09,15,09,00,10.20
2017,09,15,09,01,10.30
2017,09,15,09,02,10.30
2017,09,15,09,03,10.40
2017,09,15,09,04,10.50
2017,09,15,09,05,10.60
2017,09,15,09,06,10.70
2017,09,15,09,07,10.80
2017,09,15,09,08,10.80
2017,09,15,09,09,10.90
2017,09,15,09,10,10.90
2017,09,15,09,11,10.90
2017,09,15,09,12,11.00
2017,09,15,09,13,11.00
2017,09,15,09,14,11.10
2017,09,15,09,15,11.10
2017,09,15,09,16,11.10
2017,09,15,09,17,11.10
2017,09,15,09,18,11.20
2017,09,15,09,19,11.20
2017,09,15,09,20,11.20
2017,09,15,09,21,11.30
2017,09,15,09,22,11.40
2017,09,15,09,23,11.50
2017,09,15,09,24,11.60
2017,09,15,09,25,11.60
2017,09,15,09,26,11.70
2017,09,15,09,27,11.70
2017,09,15,09,28,11.80
2017,09,15,09,29,11.80
2017,09,15,09,30,11.90
2017,09,15,09,31,11.90
2017,09,15,09,32,11.90
2017,09,15,09,33,12.00
2017,09,15,09,34,12.10
2017,09,15,09,35,12.20
2017,09,15,09,36,12.20
2017,09,15,09,37,12.30
2017,09,15,09,38,12.40
2017,09,15,09,39,12.50
2017,09,15,09,40,12.60
2017,09,15,09,41,12.70
2017,09,15,09,42,12.80
2017,09,15,09,43,13.00
2017,09,15,09,44,13.10
2017,09,15,09,45,13.30
2017,09,15,09,46,13.50
2017,09,15,09,47,13.70
2017,09,15,09,48,13.80
2017,09,15,09,49,14.00
2017,09,15,09,50,14.10
2017,09,15,09,51,14.20
2017,09,15,09,52,14.30
2017,09,15,09,53,14.30
2017,09,15,09,54,14.40
2017,09,15,09,55,14.40
2017,09,15,09,56,14.40
2017,09,15,09,57,14.40
2017,09,15,09,58,14.40
2017,09,15,09,59,14.40
2017,09,15,10,00,14.50
2017,09,15,10,01,14.60
2017,09,15,10,02,14.60
2017,09,15,10,03,14.60
2017,09,15,10,04,14.60
2017,09,15,10,05,14.60
2017,09,15,10,06,14.60
2017,09,15,10,07,14.70
2017,09,15,10,08,14.80
2017,09,15,10,09,14.90
2017,09,15,10,10,14.90
2017,09,15,10,11,14.90
2017,09,15,10,12,14.90
2017,09,15,10,13,15.00
2017,09,15,10,14,15.00
2017,09,15,10,15,15.10
2017,09,15,10,16,15.20
2017,09,15,10,17,15.30
2017,09,15,10,18,15.30
2017,09,15,10,19,15.40
2017,09,15,10,20,15.50
2017,09,15,10,21,15.60
2017,09,15,10,22,15.70
2017,09,15,10,23,15.70
2017,09,15,10,24,15.70
2017,09,15,10,25,15.70
2017,09,15,10,26,15.70
2017,09,15,10,27,15.70
2017,09,15,10,28,15.80
2017,09,15,10,29,15.80
2017,09,15,10,30,15.90
2017,09,15,10,31,16.00
2017,09,15,10,32,16.00
2017,09,15,10,33,16.00
2017,09,15,10,34,16.10
2017,09,15,10,35,16.10
2017,09,15,10,36,16.00
2017,09,15,10,37,16.00
2017,09,15,10,38,16.10
2017,09,15,10,39,16.10
2017,09,15,10,40,16.10
2017,09,15,10,41,16.20
2017,09,15,10,42,16.20
2017,09,15,10,43,16.30
2017,09,15,10,44,16.40
2017,09,15,10,45,16.40
2017,09,15,10,46,16.50
2017,09,15,10,47,16.60
2017,09,15,10,48,16.70
2017,09,15,10,49,16.70
2017,09,15,10,50,16.80
2017,09,15,10,51,16.90
2017,09,15,10,52,16.90
2017,09,15,10,53,17.00
2017,09,15,10,54,17.10
2017,09,15,10,55,17.10
2017,09,15,10,56,17.20
2017,09,15,10,57,17.30
2017,09,15,10,58,17.30
2017,09,15,10,59,17.40
2017,09,15,11,00,17.40
2017,09,15,11,01,17.50
2017,09,15,11,02,17.60
2017,09,15,11,03,17.60
2017,09,15,11,04,17.70
2017,09,15,11,05,17.80
2017,09,15,11,06,17.80
2017,09,15,11,07,17.90
2017,09,15,11,08,17.90
2017,09,15,11,09,18.00
2017,09,15,11,10,18.00
2017,09,15,11,11,18.00
2017,09,15,11,12,18.10
2017,09,15,11,13,18.10
2017,09,15,11,14,18.20
2017,09,15,11,15,18.30
2017,09,15,11,16,18.30
2017,09,15,11,17,18.40
2017,09,15,11,18,18.40
2017,09,15,11,19,18.50
2017,09,15,11,20,18.60
2017,09,15,11,21,18.60
2017,09,15,11,22,18.60
2017,09,15,11,23,18.60
2017,09,15,11,24,18.70
2017,09,15,11,25,18.70
2017,09,15,11,26,18.70
2017,09,15,11,27,18.80
2017,09,15,11,28,18.80
2017,09,15,11,29,18.90
2017,09,15,11,30,19.00
2017,09,15,11,31,19.00
2017,09,15,11,32,19.10
2017,09,15,11,33,19.10
2017,09,15,11,34,19.20
2017,09,15,11,35,19.30
2017,09,15,11,36,19.40
2017,09,15,11,37,19.50
2017,09,15,11,38,19.50
2017,09,15,11,39,19.60
2017,09,15,11,40,19.60
2017,09,15,11,41,19.70
2017,09,15,11,42,19.80
2017,09,15,11,43,19.90
2017,09,15,11,44,19.90
2017,09,15,11,45,19.90
2017,09,15,11,46,20.00
2017,09,15,11,47,20.00
2017,09,15,11,48,20.00
2017,09,15,11,49,20.00
2017,09,15,11,50,20.10
2017,09,15,11,51,20.10
2017,09,15,11,52,20.10
2017,09,15,11,53,20.10
2017,09,15,11,54,20.10
2017,09,15,11,55,20.10
2017,09,15,11,56,20.10
2017,09,15,11,57,20.10
2017,09,15,11,58,20.00
2017,09,15,11,59,20.00
2017,09,15,12,00,20.00
2017,09,15,12,01,20.00
2017,09,15,12,02,20.10
2017,09,15,12,03,20.20
2017,09,15,12,04,20.30
2017,09,15,12,05,20.30
2017,09,15,12,06,20.40
2017,09,15,12,07,20.40
2017,09,15,12,08,20.50
2017,09,15,12,09,20.60
2017,09,15,12,10,20.60
2017,09,15,12,11,20.60
2017,09,15,12,12,20.70
2017,09,15,12,13,20.70
2017,09,15,12,14,20.70
2017,09,15,12,15,20.80
2017,09,15,12,16,20.90
2017,09,15,12,17,21.00
2017,09,15,12,18,21.10
2017,09,15,12,19,21.20
2017,09,15,12,20,21.20
2017,09,15,12,21,21.20
2017,09,15,12,22,21.30
2017,09,15,12,23,21.30
2017,09,15,12,24,21.40
2017,09,15,12,25,21.50
2017,09,15,12,26,21.60
2017,09,15,12,27,21.80
2017,09,15,12,28,21.90
2017,09,15,12,29,22.00
2017,09,15,12,30,22.10
2017,09,15,12,31,22.10
2017,09,15,12,32,22.10
2017,09,15,12,33,22.10
2017,09,15,12,34,22.10
2017,09,15,12,35,22.10
2017,09,15,12,36,22.10
2017,09,15,12,37,22.10
2017,09,15,12,38,22.10
2017,09,15,12,39,22.20
2017,09,15,12,40,22.20
2017,09,15,12,41,22.30
2017,09,15,12,42,22.30
2017,09,15,12,43,22.40
2017,09,15,12,44,22.50
2017,09,15,12,45,22.60
2017,09,15,12,46,22.70
2017,09,15,12,47,22.70
2017,09,15,12,48,22.80
2017,09,15,12,49,22.90
2017,09,15,12,50,22.90
2017,09,15,12,51,22.90
2017,09,15,12,52,23.00
2017,09,15,12,53,23.00
2017,09,15,12,54,23.00
2017,09,15,12,55,23.10
2017,09,15,12,56,23.10
2017,09,15,12,57,23.10
2017,09,15,12,58,23.10
2017,09,15,12,59,23.10
2017,09,15,13,00,23.20
2017,09,15,13,01,23.20
2017,09,15,13,02,23.20
2017,09,15,13,03,23.30
2017,09,15,13,04,23.30
2017,09,15,13,05,23.30
2017,09,15,13,06,23.30
2017,09,15,13,07,23.30
2017,09,15,13,08,23.20
2017,09,15,13,09,23.20
2017,09,15,13,10,23.20
2017,09,15,13,11,23.20
2017,09,15,13,12,23.20
2017,09,15,13,13,23.20
2017,09,15,13,14,23.30
2017,09,15,13,15,23.30
2017,09,15,13,16,23.30
2017,09,15,13,17,23.30
2017,09,15,13,18,23.40
2017,09,15,13,19,23.50
2017,09,15,13,20,23.50
2017,09,15,13,21,23.60
2017,09,15,13,22,23.70
2017,09,15,13,23,23.80
2017,09,15,13,24,23.80
2017,09,15,13,25,23.80
2017,09,15,13,26,23.80
2017,09,15,13,27,23.90
2017,09,15,13,28,23.90
2017,09,15,13,29,23.90
2017,09,15,13,30,23.80
2017,09,15,13,31,23.80
2017,09,15,13,32,23.80
2017,09,15,13,33,23.90
2017,09,15,13,34,24.00
2017,09,15,13,35,24.00
2017,09,15,13,36,24.10
2017,09,15,13,37,24.10
2017,09,15,13,38,24.20
2017,09,15,13,39,24.20
2017,09,15,13,40,24.30
2017,09,15,13,41,24.40
2017,09,15,13,42,24.50
2017,09,15,13,43,24.60
2017,09,15,13,44,24.60
2017,09,15,13,45,24.70
2017,09,15,13,46,24.80
2017,09,15,13,47,24.90
2017,09,15,13,48,24.90
2017,09,15,13,49,24.90
2017,09,15,13,50,24.90
2017,09,15,13,51,24.90
2017,09,15,13,52,24.90
2017,09,15,13,53,24.90
2017,09,15,13,54,24.90
2017,09,15,13,55,24.90
2017,09,15,13,56,24.90
2017,09,15,13,57,24.90
2017,09,15,13,58,25.00
2017,09,15,13,59,25.00
2017,09,15,14,00,25.00
2017,09,15,14,01,24.90
2017,09,15,14,02,24.90
2017,09,15,14,03,25.00
2017,09,15,14,04,24.90
2017,09,15,14,05,24.90
2017,09,15,14,06,24.90
2017,09,15,14,07,24.90
2017,09,15,14,08,24.90
2017,09,15,14,09,25.00
2017,09,15,14,10,25.10
2017,09,15,14,11,25.10
2017,09,15,14,12,25.20
2017,09,15,14,13,25.20
2017,09,15,14,14,25.30
2017,09,15,14,15,25.30
2017,09,15,14,16,25.40
2017,09,15,14,17,25.50
2017,09,15,14,18,25.50
2017,09,15,14,19,25.60
2017,09,15,14,20,25.60
2017,09,15,14,21,25.60
2017,09,15,14,22,25.60
2017,09,15,14,23,25.60
2017,09,15,14,24,25.60
2017,09,15,14,25,25.50
2017,09,15,14,26,25.40
2017,09,15,14,27,25.40
2017,09,15,14,28,25.40
2017,09,15,14,29,25.40
2017,09,15,14,30,25.40
2017,09,15,14,31,25.40
2017,09,15,14,32,25.40
2017,09,15,14,33,25.40
2017,09,15,14,34,25.30
2017,09,15,14,35,25.20
2017,09,15,14,36,25.10
2017,09,15,14,37,25.10
2017,09,15,14,38,25.10
2017,09,15,14,39,25.00
2017,09,15,14,40,25.00
2017,09,15,14,41,25.00
2017,09,15,14,42,25.00
2017,09,15,14,43,25.10
2017,09,15,14,44,25.10
2017,09,15,14,45,25.20
2017,09,15,14,46,25.20
2017,09,15,14,47,25.30
2017,09,15,14,48,25.40
2017,09,15,14,49,25.40
2017,09,15,14,50,25.50
2017,09,15,14,51,25.50
2017,09,15,14,52,25.50
2017,09,15,14,53,25.60
2017,09,15,14,54,25.60
2017,09,15,14,55,25.60
2017,09,15,14,56,25.60
2017,09,15,14,57,25.70
2017,09,15,14,58,25.80
2017,09,15,14,59,25.90
2017,09,15,15,00,25.90
2017,09,15,15,01,26.00
2017,09,15,15,02,26.10
2017,09,15,15,03,26.10
2017,09,15,15,04,26.00
2017,09,15,15,05,26.00
2017,09,15,15,06,26.00
2017,09,15,15,07,26.00
2017,09,15,15,08,26.00
2017,09,15,15,09,26.00
2017,09,15,15,10,26.00
2017,09,15,15,11,26.00
2017,09,15,15,12,26.00
2017,09,15,15,13,26.00
2017,09,15,15,14,26.10
2017,09,15,15,15,26.10
2017,09,15,15,16,26.10
2017,09,15,15,17,26.10
2017,09,15,15,18,26.20
2017,09,15,15,19,26.20
2017,09,15,15,20,26.10
2017,09,15,15,21,26.00
2017,09,15,15,22,25.90
2017,09,15,15,23,25.80
2017,09,15,15,24,25.80
2017,09,15,15,25,25.80
2017,09,15,15,26,25.80
2017,09,15,15,27,25.80
2017,09,15,15,28,25.80
2017,09,15,15,29,25.80
2017,09,15,15,30,25.90
2017,09,15,15,31,26.00
2017,09,15,15,32,26.00
2017,09,15,15,33,26.10
2017,09,15,15,34,26.10
2017,09,15,15,35,26.20
2017,09,15,15,36,26.10
2017,09,15,15,37,26.10
2017,09,15,15,38,26.10
2017,09,15,15,39,26.10
2017,09,15,15,40,26.10
2017,09,15,15,41,26.10
2017,09,15,15,42,26.00
2017,09,15,15,43,26.00
2017,09,15,15,44,26.00
2017,09,15,15,45,26.00
2017,09,15,15,46,26.10
2017,09,15,15,47,26.10
2017,09,15,15,48,26.10
2017,09,15,15,49,26.10
2017,09,15,15,50,26.10
2017,09,15,15,51,26.00
2017,09,15,15,52,26.00
2017,09,15,15,53,25.90
2017,09,15,15,54,25.90
2017,09,15,15,55,25.90
2017,09,15,15,56,25.80
2017,09,15,15,57,25.80
2017,09,15,15,58,25.80
2017,09,15,15,59,25.70
2017,09,15,16,00,25.70
2017,09,15,16,01,25.70
2017,09,15,16,02,25.80
2017,09,15,16,03,25.80
2017,09,15,16,04,25.80
2017,09,15,16,05,25.70
2017,09,15,16,06,25.70
2017,09,15,16,07,25.60
2017,09,15,16,08,25.60
2017,09,15,16,09,25.50
2017,09,15,16,10,25.40
2017,09,15,16,11,25.40
2017,09,15,16,12,25.40
2017,09,15,16,13,25.50
2017,09,15,16,14,25.50
2017,09,15,16,15,25.50
2017,09,15,16,16,25.50
2017,09,15,16,17,25.40
2017,09,15,16,18,25.40
2017,09,15,16,19,25.50
2017,09,15,16,20,25.50
2017,09,15,16,21,25.50
2017,09,15,16,22,25.50
2017,09,15,16,23,25.40
2017,09,15,16,24,25.30
2017,09,15,16,25,25.30
2017,09,15,16,26,25.30
2017,09,15,16,27,25.30
2017,09,15,16,28,25.20
2017,09,15,16,29,25.10
2017,09,15,16,30,25.10
2017,09,15,16,31,25.00
2017,09,15,16,32,24.90
2017,09,15,16,33,24.80
2017,09,15,16,34,24.80
2017,09,15,16,35,24.70
2017,09,15,16,36,24.70
2017,09,15,16,37,24.60
2017,09,15,16,38,24.60
2017,09,15,16,39,24.50
2017,09,15,16,40,24.50
2017,09,15,16,41,24.40
2017,09,15,16,42,24.40
2017,09,15,16,43,24.40
2017,09,15,16,44,24.40
2017,09,15,16,45,24.50
2017,09,15,16,46,24.50
2017,09,15,16,47,24.50
2017,09,15,16,48,24.60
2017,09,15,16,49,24.60
2017,09,15,16,50,24.60
2017,09,15,16,51,24.70
2017,09,15,16,52,24.80
2017,09,15,16,53,24.80
2017,09,15,16,54,24.80
2017,09,15,16,55,24.80
2017,09,15,16,56,24.90
2017,09,15,16,57,24.90
2017,09,15,16,58,25.00
2017,09,15,16,59,25.10
2017,09,15,17,00,25.10
2017,09,15,17,01,25.00
2017,09,15,17,02,25.00
2017,09,15,17,03,25.00
2017,09,15,17,04,25.00
2017,09,15,17,05,25.00
2017,09,15,17,06,24.90
2017,09,15,17,07,24.90
2017,09,15,17,08,25.00
2017,09,15,17,09,25.00
2017,09,15,17,10,25.00
2017,09,15,17,11,25.00
2017,09,15,17,12,25.00
2017,09,15,17,13,25.00
2017,09,15,17,14,25.00
2017,09,15,17,15,25.10
2017,09,15,17,16,25.10
2017,09,15,17,17,25.20
2017,09,15,17,18,25.20
2017,09,15,17,19,25.20
2017,09,15,17,20,25.20
2017,09,15,17,21,25.30
2017,09,15,17,22,25.20
2017,09,15,17,23,25.10
2017,09,15,17,24,25.00
2017,09,15,17,25,24.90
2017,09,15,17,26,24.90
2017,09,15,17,27,24.90
2017,09,15,17,28,24.90
2017,09,15,17,29,24.90
2017,09,15,17,30,24.90
2017,09,15,17,31,25.00
2017,09,15,17,32,25.00
2017,09,15,17,33,25.00
2017,09,15,17,34,25.00
2017,09,15,17,35,25.00
2017,09,15,17,36,25.00
2017,09,15,17,37,24.90
2017,09,15,17,38,24.90
2017,09,15,17,39,24.80
2017,09,15,17,40,24.80
2017,09,15,17,41,24.70